Temp
13 13 13 12 11 11 11 11 14 14 14 14 14 13 14 14 14 14 13 11 11 11
12 12 13 13 12 12 12 12 12 13 13 12 12 12 13 14 14 13 12 11 10 10
11 11 12 12 13 13 13 12 13 13 12 12 11 10 10 10 10 10 10 10 10 9
9 10 11 11 12 12 12 12 12 11 11 10 9 9 10 10 9 9 9 9 8 7
9 9 9 10 11 11 11 12 12 10 9 9 9 9 9 9 9 8 8 7 6 5
8 8 8 9 9 9 10 10 11 9 9 8 7 7 8 8 8 7 6 5 4 4
7 7 7 7 8 7 9 8 9 9 7 7 7 7 7 6 6 5 4 3 2 1
6 5 5 4 4 5 5 6 7 6 5 5 4 4 4 4 3 2 1 1 1 1
4 4 4 3 3 3 3 4 5 3 3 3 2 1 1 1 1 1 1 2 1 0
2 2 2 2 2 2 1 1 1 1 1 0 0 -1 -0 -0 0 0 0 0 0 -0
1 1 1 1 0 0 -0 -0 -1 -1 -1 -2 -1 -1 -1 -0 -1 -1 -1 -1 -2 -2
0 0 0 0 -0 -1 -1 -1 -1 -2 -2 -2 -2 -2 -1 -1 -1 -1 -1 -2 -2 -2
-1 -0 -0 -1 -1 -1 -1 -1 -2 -2 -2 -2 -1 -1 -1 -1 -1 -2 -3 -3 -3 -3
-1 -1 -1 -1 -2 -2 -2 -2 -2 -2 -2 -2 -2 -3 -3 -3 -3 -3 -4 -4 -4 -5
Height
1462 1461 1461 1461 1462 1463 1464 1463 1462 1463 1464 1466 1467 1469 1472 1474 1477 1479 1481 1483 1485 1488
1458 1457 1456 1456 1456 1455 1456 1456 1456 1456 1456 1457 1459 1460 1462 1463 1466 1468 1471 1474 1477 1481
1454 1453 1452 1451 1451 1450 1450 1449 1449 1449 1449 1449 1451 1452 1454 1456 1457 1460 1462 1464 1467 1471
1450 1449 1448 1447 1445 1445 1445 1444 1443 1443 1442 1443 1443 1445 1446 1448 1451 1454 1455 1457 1459 1462
1447 1446 1444 1444 1441 1440 1438 1438 1439 1438 1437 1437 1438 1439 1440 1442 1445 1447 1449 1451 1454 1457
1443 1442 1440 1439 1437 1436 1434 1433 1433 1433 1434 1434 1434 1435 1436 1437 1439 1441 1445 1448 1450 1454
1441 1438 1436 1433 1431 1432 1430 1430 1429 1429 1431 1431 1430 1431 1432 1433 1435 1438 1441 1445 1449 1453
1437 1435 1432 1430 1427 1426 1427 1427 1428 1427 1428 1427 1427 1427 1429 1431 1434 1438 1442 1447 1451 1454
1434 1432 1431 1429 1426 1425 1425 1424 1424 1427 1427 1426 1427 1429 1429 1435 1437 1441 1444 1447 1450 1449
1433 1432 1430 1428 1427 1426 1425 1425 1426 1427 1428 1427 1429 1431 1432 1436 1440 1442 1445 1447 1448 1452
1434 1432 1430 1430 1429 1429 1429 1429 1425 1431 1431 1434 1434 1435 1437 1438 1441 1444 1445 1446 1448 1451
1435 1434 1433 1432 1432 1433 1434 1435 1437 1438 1438 1439 1438 1439 1440 1442 1444 1444 1446 1447 1449 1450
1439 1437 1437 1437 1438 1439 1440 1441 1443 1444 1444 1444 1443 1443 1444 1445 1446 1447 1448 1449 1449 1449
1444 1443 1443 1443 1444 1445 1446 1446 1447 1448 1447 1446 1447 1447 1448 1448 1449 1450 1450 1449 1448 1447
Wind_Speed
16 18 23 26 25 24 24 26 31 34 35 34 37 42 46 46 45 45 47 48 50 48
17 18 19 21 22 24 24 25 26 28 32 32 34 37 42 46 47 47 45 47 50 48
16 17 17 19 21 24 25 25 28 27 28 30 31 33 36 40 45 45 43 44 45 43
10 13 15 17 19 21 25 25 26 27 26 25 26 27 29 32 36 40 40 39 39 40
13 15 17 19 18 19 18 21 25 24 23 21 21 23 24 27 30 33 34 33 33 34
14 17 20 21 19 17 18 15 20 21 21 18 18 20 22 23 24 27 27 28 29 29
16 17 15 18 20 17 16 17 17 17 18 18 18 19 21 21 21 22 23 23 21 18
11 13 11 11 10 11 12 14 15 15 15 15 15 16 17 17 16 17 17 15 14 14
10 9 8 8 7 7 7 8 10 10 9 8 8 6 8 10 12 13 12 14 13 14
8 8 8 7 6 3 1 0 3 4 4 8 11 13 13 12 12 11 12 11 10 12
9 9 9 8 7 6 5 6 8 11 11 12 14 11 10 10 11 12 9 9 8 5
10 10 11 11 11 11 11 12 11 11 12 12 14 10 9 7 7 6 4 2 2 2
14 15 15 15 15 14 14 14 13 11 10 8 9 8 6 4 4 4 2 1 3 6
18 18 18 16 14 13 13 12 10 9 9 9 9 10 7 6 3 1 3 5 7 8
Wind_Direction
267 263 260 256 251 253 254 261 262 261 263 262 257 248 247 248 251 250 246 242 244 245
267 269 266 263 261 263 260 260 261 262 263 260 257 256 249 247 248 247 247 244 244 245
272 268 268 265 264 262 260 259 263 263 261 261 259 257 255 252 248 247 245 243 242 239
292 291 280 271 267 269 269 267 265 265 263 260 258 256 255 253 251 247 245 245 240 236
295 294 296 303 292 277 271 270 275 268 262 256 252 252 251 253 249 248 245 241 235 232
307 295 288 285 291 296 280 275 266 274 266 257 255 253 249 246 245 242 237 232 230 228
310 304 302 289 280 284 288 281 272 264 266 257 244 248 245 239 232 225 218 219 217 214
316 319 315 312 300 286 275 274 273 263 248 244 237 231 230 221 212 203 197 192 201 214
329 322 326 330 321 306 295 280 260 258 254 245 226 196 164 178 175 180 199 206 206 217
359 352 353 5 6 6 348 240 188 174 166 158 151 145 149 163 174 184 191 202 215 224
31 33 35 33 42 45 61 98 124 128 133 142 145 149 161 162 178 175 187 199 202 230
57 60 65 70 77 87 96 106 114 125 130 134 121 128 136 154 172 180 199 216 189 233
76 80 85 88 92 102 110 117 124 125 115 107 114 126 145 137 95 91 103 200 258 274
87 88 89 92 95 101 107 110 111 111 101 88 93 86 80 86 78 3 290 285 290 290